Madison, MN

11:10 PM CST on December 15, 2019 (GMT -0600)
Madison-Lac Qui Parle County

Weather History for KDXX - October, 2019

Change the Weather History Date:

Tuesday, October 8, 2019

  Actual Average (WUND) Record (WUND)
Temperature  
Mean Temperature 64 °F -  
Max Temperature 77 °F - - (-1)
Min Temperature 51 °F - - (-1)
Degree Days  
Heating Degree Days 1    
Growing Degree Days 14 (Base 50)    
Moisture  
Dew Point 43 °F    
Average Humidity 49    
Maximum Humidity 71    
Minimum Humidity 29    
Precipitation  
Precipitation 0.00 in - - ()
Sea Level Pressure  
Sea Level Pressure 29.81 in    
Wind  
Wind Speed 12 mph (South)    
Max Wind Speed 25 mph    
Max Gust Speed 34 mph    
Visibility 10 miles    
Events      
Averages and records for this station are not official NWS values.
T = Trace of Precipitation, MM = Missing Value Source: NWS Daily Summary

Daily Weather History Graph

Daily Weather History Graph

Search for Another Location

Airport or City:

Astronomy

Oct. 08, 2019 Rise Set
Actual Time 7:31 AM CDT 6:52 PM CDT
Civil Twilight 7:01 AM CDT 7:21 PM CDT
Nautical Twilight 6:27 AM CDT 7:55 PM CDT
Astronomical Twilight 5:53 AM CDT 8:29 PM CDT
Moon 5:07 PM CDT (10/8) 2:04 AM CDT (10/8)
Length of Visible Light 12h 20m
Length of Day
11h 21m
Waxing Gibbous, 78% of the Moon is Illuminated
Oct 8
Waxing Gibbous
Oct 13
Full
Oct 21
Last Quarter
Oct 27
New
Nov 4
First Quarter

Hourly Weather History & Observations

Time (CDT) Temp. Dew Point Humidity Pressure Visibility Wind Dir Wind Speed Gust Speed Precip Events Conditions
12:15 AM 51.8 °F 42.8 °F 71% 29.92 in 10.0 mi SSE 6.9 mph - N/A   Clear
12:16 AM 51.8 °F 42.8 °F 71% 29.92 in 10.0 mi SSE 6.9 mph - N/A   Clear
12:35 AM 51.8 °F 42.8 °F 71% 29.92 in 10.0 mi South 5.8 mph - N/A   Clear
12:39 AM 51.8 °F 42.8 °F 71% 29.92 in 10.0 mi South 6.9 mph - N/A   Clear
12:57 AM 51.8 °F 42.8 °F 71% 29.91 in 10.0 mi South 5.8 mph - N/A   Clear
1:16 AM 51.8 °F 42.8 °F 71% 29.90 in 10.0 mi South 5.8 mph - N/A   Clear
1:35 AM 51.8 °F 42.8 °F 71% 29.90 in 10.0 mi South 5.8 mph - N/A   Clear
1:36 AM 51.8 °F 42.8 °F 71% 29.90 in 10.0 mi South 5.8 mph - N/A   Clear
1:55 AM 53.6 °F 42.8 °F 67% 29.89 in 10.0 mi South 6.9 mph - N/A   Clear
1:56 AM 53.6 °F 42.8 °F 67% 29.89 in 10.0 mi South 6.9 mph - N/A   Clear
2:18 AM 57.2 °F 42.8 °F 59% 29.89 in 10.0 mi SSW 9.2 mph - N/A   Clear
2:36 AM 59.0 °F 42.8 °F 55% 29.89 in 10.0 mi SSW 10.4 mph - N/A   Clear
2:55 AM 59.0 °F 42.8 °F 55% 29.89 in 10.0 mi South 9.2 mph - N/A   Clear
3:15 AM 57.2 °F 42.8 °F 59% 29.88 in 10.0 mi South 8.1 mph - N/A   Clear
3:16 AM 57.2 °F 42.8 °F 59% 29.88 in 10.0 mi SSW 8.1 mph - N/A   Clear
3:39 AM 59.0 °F 41.0 °F 51% 29.87 in 10.0 mi SSW 11.5 mph 17.3 mph N/A   Clear
3:58 AM 59.0 °F 41.0 °F 51% 29.87 in 10.0 mi SSW 13.8 mph 20.7 mph N/A   Clear
4:15 AM 59.0 °F 41.0 °F 51% 29.86 in 10.0 mi SSW 15.0 mph 19.6 mph N/A   Clear
4:35 AM 59.0 °F 41.0 °F 51% 29.86 in 10.0 mi South 13.8 mph 18.4 mph N/A   Clear
4:36 AM 59.0 °F 41.0 °F 51% 29.86 in 10.0 mi South 11.5 mph 18.4 mph N/A   Clear
4:55 AM 59.0 °F 39.2 °F 48% 29.85 in 10.0 mi South 15.0 mph 23.0 mph N/A   Clear
5:18 AM 59.0 °F 39.2 °F 48% 29.85 in 10.0 mi South 13.8 mph 21.9 mph N/A   Clear
5:37 AM 59.0 °F 39.2 °F 48% 29.85 in 10.0 mi South 11.5 mph 21.9 mph N/A   Clear
5:56 AM 59.0 °F 39.2 °F 48% 29.84 in 10.0 mi South 13.8 mph - N/A   Clear
6:15 AM 59.0 °F 39.2 °F 48% 29.84 in 10.0 mi South 13.8 mph 18.4 mph N/A   Clear
6:16 AM 59.0 °F 39.2 °F 48% 29.84 in 10.0 mi South 13.8 mph 19.6 mph N/A   Clear
6:35 AM 59.0 °F 39.2 °F 48% 29.84 in 10.0 mi South 15.0 mph 20.7 mph N/A   Clear
6:57 AM 59.0 °F 39.2 °F 48% 29.83 in 10.0 mi South 18.4 mph 21.9 mph N/A   Clear
7:16 AM 59.0 °F 39.2 °F 48% 29.83 in 10.0 mi South 13.8 mph 23.0 mph N/A   Clear
7:35 AM 57.2 °F 41.0 °F 55% 29.83 in 10.0 mi South 12.7 mph 19.6 mph N/A   Clear
7:36 AM 57.2 °F 41.0 °F 55% 29.83 in 10.0 mi South 12.7 mph 18.4 mph N/A   Clear
7:55 AM 57.2 °F 41.0 °F 55% 29.83 in 10.0 mi South 16.1 mph 20.7 mph N/A   Clear
7:56 AM 57.2 °F 39.2 °F 51% 29.83 in 10.0 mi South 16.1 mph 20.7 mph N/A   Clear
8:19 AM 57.2 °F 41.0 °F 55% 29.83 in 10.0 mi South 13.8 mph 19.6 mph N/A   Clear
8:36 AM 59.0 °F 41.0 °F 51% 29.83 in 10.0 mi South 13.8 mph 19.6 mph N/A   Clear
8:56 AM 60.8 °F 41.0 °F 48% 29.83 in 10.0 mi South 15.0 mph 23.0 mph N/A   Clear
9:15 AM 60.8 °F 41.0 °F 48% 29.83 in 10.0 mi South 19.6 mph 26.5 mph N/A   Clear
9:16 AM 60.8 °F 41.0 °F 48% 29.83 in 10.0 mi South 20.7 mph 26.5 mph N/A   Clear
9:39 AM 62.6 °F 41.0 °F 45% 29.82 in 10.0 mi South 17.3 mph 26.5 mph N/A   Clear
9:56 AM 64.4 °F 39.2 °F 40% 29.82 in 10.0 mi South 19.6 mph 28.8 mph N/A   Clear
10:16 AM 64.4 °F 41.0 °F 42% 29.82 in 10.0 mi South 21.9 mph 29.9 mph N/A   Clear
10:35 AM 66.2 °F 41.0 °F 40% 29.82 in 10.0 mi South 20.7 mph 29.9 mph N/A   Clear
10:36 AM 66.2 °F 41.0 °F 40% 29.81 in 10.0 mi South 21.9 mph 29.9 mph N/A   Clear
10:55 AM 66.2 °F 41.0 °F 40% 29.80 in 10.0 mi South 21.9 mph 31.1 mph N/A   Clear
10:59 AM 66.2 °F 41.0 °F 40% 29.80 in 10.0 mi South 24.2 mph 31.1 mph N/A   Clear
11:17 AM 68.0 °F 41.0 °F 37% 29.79 in 10.0 mi South 25.3 mph 33.4 mph N/A   Clear
11:36 AM 68.0 °F 41.0 °F 37% 29.79 in 10.0 mi South 21.9 mph 33.4 mph N/A   Clear
11:55 AM 69.8 °F 42.8 °F 38% 29.78 in 10.0 mi South 18.4 mph 28.8 mph N/A   Clear
11:56 AM 69.8 °F 42.8 °F 38% 29.78 in 10.0 mi South 21.9 mph 28.8 mph N/A   Clear
12:15 PM 71.6 °F 42.8 °F 35% 29.77 in 10.0 mi South 24.2 mph 34.5 mph N/A   Clear
12:37 PM 71.6 °F 42.8 °F 35% 29.77 in 10.0 mi South 20.7 mph 31.1 mph N/A   Clear
12:55 PM 71.6 °F 42.8 °F 35% 29.77 in 10.0 mi South 20.7 mph 31.1 mph N/A   Clear
1:15 PM 73.4 °F 42.8 °F 33% 29.77 in 10.0 mi South 19.6 mph 28.8 mph N/A   Clear
1:35 PM 73.4 °F 42.8 °F 33% 29.76 in 10.0 mi South 18.4 mph 27.6 mph N/A   Clear
1:59 PM 73.4 °F 42.8 °F 33% 29.75 in 10.0 mi South 19.6 mph 28.8 mph N/A   Clear
2:16 PM 75.2 °F 42.8 °F 31% 29.74 in 10.0 mi South 20.7 mph 31.1 mph N/A   Clear
2:55 PM 75.2 °F 42.8 °F 31% 29.74 in 10.0 mi SSW 20.7 mph 29.9 mph N/A   Clear
3:15 PM 75.2 °F 42.8 °F 31% 29.74 in 10.0 mi South 23.0 mph 31.1 mph N/A   Clear
3:19 PM 75.2 °F 42.8 °F 31% 29.74 in 10.0 mi South 23.0 mph 31.1 mph N/A   Clear
3:37 PM 75.2 °F 42.8 °F 31% 29.74 in 10.0 mi South 17.3 mph 25.3 mph N/A   Clear
3:56 PM 77.0 °F 42.8 °F 29% 29.74 in 10.0 mi South 19.6 mph 26.5 mph N/A   Clear
4:15 PM 77.0 °F 42.8 °F 29% 29.74 in 10.0 mi South 15.0 mph 26.5 mph N/A   Clear
4:35 PM 77.0 °F 44.6 °F 32% 29.74 in 10.0 mi South 16.1 mph 24.2 mph N/A   Clear
4:58 PM 75.2 °F 42.8 °F 31% 29.74 in 10.0 mi South 16.1 mph 26.5 mph N/A   Clear
5:16 PM 75.2 °F 44.6 °F 34% 29.73 in 10.0 mi South 18.4 mph 24.2 mph N/A   Clear
5:35 PM 73.4 °F 46.4 °F 38% 29.74 in 10.0 mi South 9.2 mph 19.6 mph N/A   Clear
5:55 PM 73.4 °F 46.4 °F 38% 29.74 in 10.0 mi South 12.7 mph - N/A   Clear
5:56 PM 73.4 °F 46.4 °F 38% 29.74 in 10.0 mi South 11.5 mph - N/A   Clear
6:15 PM 71.6 °F 46.4 °F 41% 29.74 in 10.0 mi South 10.4 mph 17.3 mph N/A   Clear
6:20 PM 71.6 °F 46.4 °F 41% 29.74 in 10.0 mi SSE 9.2 mph 17.3 mph N/A   Clear
6:37 PM 69.8 °F 46.4 °F 43% 29.74 in 10.0 mi SSE 8.1 mph - N/A   Clear
6:55 PM 66.2 °F 46.4 °F 49% 29.74 in 10.0 mi SSE 8.1 mph - N/A   Clear
7:15 PM 66.2 °F 46.4 °F 49% 29.75 in 10.0 mi SSE 8.1 mph - N/A   Clear
7:16 PM 66.2 °F 46.4 °F 49% 29.75 in 10.0 mi SSE 9.2 mph - N/A   Clear
7:35 PM 66.2 °F 46.4 °F 49% 29.75 in 10.0 mi SSE 9.2 mph - N/A   Clear
7:36 PM 66.2 °F 46.4 °F 49% 29.75 in 10.0 mi SSE 9.2 mph - N/A   Clear
7:58 PM 66.2 °F 46.4 °F 49% 29.75 in 10.0 mi SSE 11.5 mph 18.4 mph N/A   Clear
8:17 PM 64.4 °F 46.4 °F 52% 29.76 in 10.0 mi SSE 12.7 mph - N/A   Clear
8:36 PM 64.4 °F 46.4 °F 52% 29.76 in 10.0 mi SSE 11.5 mph - N/A   Clear
8:55 PM 62.6 °F 46.4 °F 55% 29.77 in 10.0 mi SSE 10.4 mph - N/A   Clear
8:56 PM 62.6 °F 46.4 °F 55% 29.77 in 10.0 mi SSE 9.2 mph - N/A   Clear
9:15 PM 62.6 °F 48.2 °F 59% 29.78 in 10.0 mi South 9.2 mph - N/A   Clear
9:37 PM 62.6 °F 48.2 °F 59% 29.79 in 10.0 mi South 9.2 mph - N/A   Clear
9:56 PM 62.6 °F 46.4 °F 55% 29.78 in 10.0 mi SSE 10.4 mph - N/A   Clear
10:15 PM 62.6 °F 46.4 °F 55% 29.79 in 10.0 mi SSE 9.2 mph - N/A   Clear
10:16 PM 62.6 °F 46.4 °F 55% 29.78 in 10.0 mi SSE 9.2 mph - N/A   Clear
10:35 PM 60.8 °F 46.4 °F 59% 29.78 in 10.0 mi SSE 10.4 mph - N/A   Clear
10:36 PM 60.8 °F 46.4 °F 59% 29.78 in 10.0 mi SSE 9.2 mph - N/A   Clear
10:59 PM 60.8 °F 46.4 °F 59% 29.77 in 10.0 mi SSE 10.4 mph - N/A   Clear
11:16 PM 60.8 °F 46.4 °F 59% 29.77 in 10.0 mi SSE 9.2 mph - N/A   Clear
11:36 PM 60.8 °F 46.4 °F 59% 29.77 in 10.0 mi SSE 10.4 mph - N/A   Clear
11:55 PM 59.0 °F 46.4 °F 63% 29.77 in 10.0 mi SSE 9.2 mph - N/A   Clear